Weather Roundup
Issued by NWS Chicago, IL

Home | Current Version | Previous Version | Text Only | Print | Product List | Glossary On
Versions: 1 2 3 4 5 6 7 8 9 10 11 12 13 14 15 16 17 18 19 20 21 22 23 24 25 26 27 28 29 30 31 32 33 34 35 36 37 38 39 40 41 42 43 44 45 46 47 48 49 50
000
NZUS59 KLOT 161410
HRRLOT

CHICAGO AREA WEATHER ROUNDUP
NATIONAL WEATHER SERVICE CHICAGO/ROMEOVILLE IL
900 AM CDT WED APR 16 2014

NOTE: "FAIR" INDICATES FEW OR NO CLOUDS BELOW 12,000 FEET WITH NO
SIGNIFICANT WEATHER AND/OR OBSTRUCTIONS TO VISIBILITY.

* THESE STATIONS ARE NOT UNDER NWS QUALITY CONTROL. THEY ALSO MAY NOT
  REPORT WEATHER SUCH AS PRECIPITATION OR FOG.

ILZ005-006-012>014-019>023-161500-
NORTHEAST ILLINOIS

CITY           SKY/WX    TMP DP  RH WIND       PRES   REMARKS
OHARE          PTSUNNY   38  21  50 S15       30.30R
MIDWAY         MOSUNNY   38  21  50 S13G21    30.31S
AURORA         MOSUNNY   37  26  64 SE14G22   30.28S
LANSING*       SUNNY     37  22  55 S15       30.33S
JOLIET*        SUNNY     38  24  57 S10       30.31S
WAUKEGAN       SUNNY     37  22  54 S10       30.29S
DUPAGE AIRPORT MOSUNNY   37  25  61 SE12      30.28R
WHEELING       SUNNY     38  23  55 S12       30.31R
KANKAKEE*      SUNNY     38  26  61 SE14      30.32F
MORRIS*        SUNNY     38  25  58 S16G23    30.29R
LEWIS AIRPORT* MOSUNNY   37  25  63 S15       30.30S
NORTHERLY IS     N/A     37  21  52 S12         N/A
$$

WIZ051-052-058>065-066-070>072-161500-
SOUTHEAST WISCONSIN

CITY           SKY/WX    TMP DP  RH WIND       PRES   REMARKS
MILWAUKEE      PTSUNNY   37  22  54 S13       30.29S
KENOSHA*       SUNNY     37  24  59 S10       30.28F
RACINE*        SUNNY     38  26  62 S14G20    30.31S
BURLINGTON     SUNNY     36  25  64 S9        30.27S
WEST BEND      CLOUDY    34  23  64 SE10      30.27F WCI  26
$$

INZ001>003-010>013-019-020-161500-
NORTHWEST INDIANA

CITY           SKY/WX    TMP DP  RH WIND       PRES   REMARKS
GARY*          MOSUNNY   37  21  52 SE12      30.34R
MICHIGAN CITY* NOT AVBL
RENSSELAER*    NOT AVBL
VALPARAISO     SUNNY     34  21  59 SE14      30.35R WCI  25
$$

LMZ740>746-161500-
SOUTHERN LAKE MICHIGAN

STATION/POSITION TIME  SKY/WX   TEMP WIND        PRES    VSBY
                                AIR  DIR/SP/G
                 (UTC)          (F)  (DEG/KT/KT) (MB)    (MI)
HARRISON CRIB    1400            35  170/ 19/ 23   N/A
BURNHAM HARBOR   1400            37  160/ 10/ 15   N/A
CALUMET HARBOR   1400            36  150/  8/ 13 1027.4S
BURNS HARBOR     NOT AVBL
MICHIGAN CITY    1400            35  140/ 12/ 18   N/A
$$

ABBREVIATIONS USED IN REMARKS
   TC - TEMPERATURE IN CELSIUS
  WCI - WIND CHILL INDEX
   HX - HEAT INDEX
  VSB - VISIBILITY
$$


USA.gov is the U.S. government's official web portal to all federal, state and local government web resources and services.